Location: Rounton
(54.4000°N, 1.3500°W)
Time: 01:42:18
(UTC+00:00)

Altair - Pass Details

Date: 05 December 2021
Orbit: 1501 x 1683 km, 47.2° (Epoch: 19 January)

Event Time Altitude Azimuth Distance (km) Brightness Sun altitude
Rises 21:04:05 0° 282° (WNW) 4,681 10.8 -44.7°
Reaches altitude 10° 21:07:32 10° 273° (W) 3,679 10.0 -45.2°
Enters shadow 21:12:52 28° 241° (WSW) 2,520 8.7 -45.9°
